Tracking 26935 objects as of 5-Feb-2023
HD Live streaming from Space Station
objects crossing your sky now

TEVEL 1

Track TEVEL 1 now!
10-day predictions
TEVEL 1 is classified as:


NORAD ID: 51013
Int'l Code: 2022-002AF
Perigee: 510.7 km
Apogee: 521.8 km
Inclination: 97.5 °
Period: 94.8 minutes
Semi major axis: 6887 km
RCS: Unknown
Launch date: January 13, 2022
Source: Israel (ISRA)
Launch site: AIR FORCE EASTERN TEST RANGE (AFETR)

Uplink (MHz): 145.970
Downlink (MHz): 436.400
Beacon (MHz):
Mode: 9600bps BPSK FM
Call sign: T1OFK
Status: Active

Your satellite tracking list
Your tracking list is empty




NASA's NSSDC Master Catalog

Two Line Element Set (TLE):
1 51013U 22002AF  23035.81318336  .00013078  00000-0  62857-3 0  9992
2 51013  97.4530 104.0928 0008120 344.2473 109.6208 15.18918405 58621
Source of the keplerian elements: AFSPC